Flag for India Weather past 2 weeks in Jaipur, Rajasthan, India

Now
84 °F

Clear.


Feels Like: 83 °F
Forecast: 67 / 93 °F
Wind: 3 mph from Southeast

Location: Jaipur / Sanganer

Current Time: Oct 22, 2014 at 11:10:49 AM

Latest Report: Oct 22, 2014 at 10:00 AM


Visibility: 1 mi

Pressure: 30.12 "Hg

Humidity: 37%

Dew point: 55 °F

Location of JaipurLocation

Historic Weather in Jaipur — Graph

°F

Jaipur temperature yesterday

Maximum temperature yesterday: 93 °F (at 2:00 PM)
Minimum temperature yesterday: 70 °F (at 3:00 AM)
Average temperature yesterday: 81 °F

Past Weeks' High & Low Weather Summary

 TemperatureHumidityPressure
High97 °F (Oct 7, 2:00 PM)94% (Oct 16, 5:00 AM)30.09 "Hg (Oct 16, 5:00 AM)
Low64 °F (Oct 18, 6:00 AM)13% (Oct 11, 4:00 PM)29.65 "Hg (Oct 11, 3:00 PM)
Average80 °F49%29.93 "Hg
* Reported Oct 7 9:00 AM — Oct 22 9:00 AM, Jaipur, Weather by CustomWeather, © 2014

Note: Actual official high and low records may vary slightly from our data, if they occured in-between our weather recording intervals... More about our weather records

Advertising

Jaipur weather history for previous 24 hours

 ConditionsComfort  
Time TempWeatherWind HumidityBarometerVisibility
9:00 AM
Oct 22
82 °FClear.5 mph37%30.09 "Hg1 mi
8:00 AM77 °FClear.3 mph51%30.09 "Hg1 mi
7:00 AM68 °FClear.3 mph60%30.07 "Hg1 mi
6:00 AM70 °FClear.1 mph57%30.04 "Hg1 mi
5:00 AM72 °FClear.3 mph53%30.04 "Hg1 mi
4:00 AM70 °FClear.No wind60%30.01 "Hg1 mi
3:00 AM70 °FClear.No wind60%30.04 "Hg1 mi
2:00 AM72 °FClear.2 mph57%30.04 "Hg1 mi
1:00 AM75 °FClear.3 mph47%30.04 "Hg1 mi
12:00 AM73 °FClear.No wind53%30.04 "Hg1 mi
10:00 PM
Oct 21
79 °FClear.3 mph42%30.04 "Hg1 mi
9:00 PM79 °FClear.2 mph48%30.04 "Hg1 mi
8:00 PM82 °FClear.No wind37%30.01 "Hg1 mi
7:00 PM82 °FHaze.1 mph35%30.01 "Hg1 mi
6:00 PM88 °FHaze.2 mph27%29.98 "Hg2 mi
5:00 PM91 °FHaze.3 mph21%29.98 "Hg2 mi
4:00 PM93 °FHaze.2 mph20%29.98 "Hg2 mi
3:00 PM93 °FHaze.5 mph20%29.98 "Hg2 mi
2:00 PM93 °FClear.2 mph20%30.01 "Hg2 mi
1:00 PM91 °FClear.6 mph24%30.04 "Hg1 mi
12:00 PM88 °FClear.6 mph31%30.07 "Hg1 mi
11:00 AM86 °FClear.6 mph31%30.09 "Hg1 mi
Weather by CustomWeather, © 2014

See weather overviewHow to use our weather pages